Content
SEND FEEDBACK

Daily
Averages
Monthly
Summary
United States of America

BURLINGTON, NORTH DAKOTA


Home > North America > United States > North Dakota
Elevation: 1679 feet     Latitude: 48 16N     Longitude: 101 17W

WEATHER
 
SELECT A DAY
Number of Records: 200,139;   Date Range: 1/1/95 - 8/30/14
 
SHARE

PRINT THIS DATA

[ ← Previous Day ]
WEATHER ALMANAC - JANUARY 29, 2014
[ Next Day → ]
[ °C ]   °F
Weather ElementAverageHighLow
Temperature15 °F19 °F (6:54 am)8.1 °F (11:54 pm)
Dewpoint5.7 °F9 °F (9:54 am) (7:00 pm)
Humidity66.6 %73 % (7:54 pm)59 % (1:54 am)
Barometer29.63 in29.78 in (1:54 am)29.48 in (8:26 am)
Wind Speed18.7 mph28.8 mph (10:54 am)
Wind Gust34.5 mph (10:54 am)
Weather ElementAverage
Visibility9.7 mi
Wind DirectionW (274.8 °)

Weather ElementTotal
Precipitation---
Heating Degree Days51.5 (Base 65)
Averaged from 27 records on January 29, 2014
WEATHER CONDITIONS BREAKOUT
WIND DIRECTION BREAKOUT
WEATHER BY HOUR - JANUARY 29, 2014
[ °C ]   °F
Local TimeTemperatureDewpointHumidityBarometerVisibilityWind DirectionWind SpeedGust SpeedPrecipitationEventsConditions
1:54 AM12.0 °F0.0 °F59 %29.78 in10.0 miSW (220°)18.4 mphClear
2:54 AM12.9 °F1.0 °F59 %29.72 in10.0 miSSW (210°)18.4 mphClear
3:54 AM12.9 °F1.9 °F62 %29.68 in10.0 miSW (220°)12.7 mphClear
4:54 AM14.0 °F3.0 °F62 %29.63 in10.0 miSSW (210°)19.6 mphClear
5:54 AM17.1 °F5.0 °F59 %29.60 in10.0 miSW (230°)17.3 mphClear
6:54 AM19.0 °F7.0 °F59 %29.58 in10.0 miWSW (240°)20.7 mphClear
7:54 AM19.0 °F8.1 °F62 %29.60 in10.0 miWSW (250°)15.0 mphClear
8:26 AM18.0 °F8.1 °F65 %29.48 in10.0 miWSW (240°)15.0 mphMostly Cloudy
8:40 AM18.0 °F8.1 °F65 %29.49 in10.0 miWSW (250°)11.5 mphScattered Clouds
8:54 AM17.1 °F8.1 °F68 %29.59 in10.0 miWSW (250°)11.5 mphClear
9:54 AM19.0 °F9.0 °F65 %29.62 in9.0 miWNW (290°)26.5 mph31.1 mph0.00 inSnowLight Snow
10:54 AM17.1 °F8.1 °F68 %29.65 in9.0 miWNW (290°)28.8 mph34.5 mph0.00 inSnowLight Snow
11:41 AM17.1 °F8.1 °F68 %29.56 in9.0 miWNW (290°)26.5 mph32.2 mph0.00 inSnowLight Snow
11:54 AM16.0 °F8.1 °F71 %29.67 in9.0 miWNW (290°)27.6 mph33.4 mph0.00 inSnowLight Snow
12:21 PM15.1 °F6.1 °F68 %29.54 in9.0 miWNW (300°)26.5 mph33.4 mph0.00 inSnowLight Snow
12:54 PM16.0 °F7.0 °F68 %29.64 in9.0 miWNW (290°)25.3 mph32.2 mph0.00 inSnowLight Snow
1:54 PM17.1 °F9.0 °F71 %29.63 in9.0 miWNW (290°)23.0 mph29.9 mph0.00 inSnowLight Snow
2:54 PM18.0 °F9.0 °F68 %29.62 in9.0 miWNW (290°)20.7 mph0.00 inClear
3:54 PM18.0 °F9.0 °F68 %29.62 in10.0 miWNW (290°)21.9 mph27.6 mphClear
4:54 PM16.0 °F7.0 °F68 %29.63 in10.0 miWNW (300°)16.1 mphOvercast
5:54 PM14.0 °F6.1 °F71 %29.65 in10.0 miWNW (290°)15.0 mphPartly Cloudy
6:54 PM12.9 °F5.0 °F71 %29.64 in10.0 miNW (310°)13.8 mphScattered Clouds
7:54 PM12.0 °F5.0 °F73 %29.66 in10.0 miNW (310°)18.4 mphOvercast
8:54 PM10.9 °F3.0 °F70 %29.67 in10.0 miNW (310°)12.7 mphOvercast
9:54 PM10.0 °F1.9 °F70 %29.68 in10.0 miNW (310°)11.5 mphOvercast
10:54 PM9.0 °F1.0 °F70 %29.71 in10.0 miNW (310°)15.0 mphOvercast
11:54 PM8.1 °F0.0 °F70 %29.73 in10.0 miNNW (340°)15.0 mphOvercast
Hourly data recorded from KMOT, located miles away from Burlington, North Dakota







STORIES FROM OUR PARTNERS